User: anonymous   Login
Location: ?
(35.4214°N, 139.3011°E)
Time: 09:49:15
(UTC+00:00)
Language:

Cosmos 2221 - Orbit

View from above orbital plane
View from above orbital plane
View from above satellite
View from above satellite

Ground track
Ground track

The orbit data is extracted from the following two-line orbital elements,

1 22236U 92080A   20270.02836228  .00000182  00000-0  17125-4 0  9997
2 22236  82.5113   8.6162 0016339 353.2884   6.8112 14.87949175505277
Epoch (UTC): 26 September 2020 00:40:50
Eccentricity: 0.0016339
inclination: 82.5113°
perigee height: 593 km
apogee height: 616 km
right ascension of ascending node: 8.6162°
argument of perigee: 353.2884°
revolutions per day: 14.87949175
mean anomaly at epoch: 6.8112°
orbit number at epoch: 50527

The dashed part of the orbit path shows where the satellite is in the earth's shadow,  

DLR